Hourly Weather Changchun

Today, 7 July, Tuesday

Time Temperature Precipitation Wind Pressure Humidity
00:00 +19°C° 0.2 mm 2 mps 731 mmHg 88%
01:00 +19°C° 0.2 mm 2 mps 731 mmHg 90%
02:00 +18°C° 0 mm 2 mps 732 mmHg 91%
03:00 +18°C° 0.2 mm 2 mps 732 mmHg 92%
04:00 +18°C° 0.2 mm 3 mps 732 mmHg 92%
05:00 +17°C° 0.2 mm 3 mps 733 mmHg 93%
06:00 +18°C° 0 mm 3 mps 733 mmHg 88%
07:00 +19°C° 0 mm 4 mps 734 mmHg 83%
08:00 +20°C° 0 mm 4 mps 734 mmHg 79%
09:00 +22°C° 0 mm 4 mps 734 mmHg 71%
10:00 +23°C° 0 mm 4 mps 735 mmHg 63%
11:00 +25°C° 0 mm 5 mps 735 mmHg 56%
12:00 +26°C° 0 mm 5 mps 735 mmHg 52%
13:00 +26°C° 0 mm 5 mps 734 mmHg 49%
14:00 +27°C° 0 mm 6 mps 734 mmHg 46%
15:00 +26°C° 0 mm 5 mps 735 mmHg 47%
16:00 +26°C° 0 mm 5 mps 735 mmHg 48%
17:00 +26°C° 0 mm 4 mps 735 mmHg 49%
18:00 +24°C° 0 mm 3 mps 735 mmHg 53%
19:00 +23°C° 0 mm 2 mps 735 mmHg 58%
20:00 +21°C° 0 mm 1 mps 735 mmHg 63%
21:00 +19°C° 0 mm 2 mps 735 mmHg 64%
22:00 +19°C° 0 mm 2 mps 736 mmHg 65%
23:00 +18°C° 0 mm 3 mps 736 mmHg 67%

Tomorrow, 8 July, Wednesday

Time Temperature Precipitation Wind Pressure Humidity
00:00 +18°C° 0 mm 3 mps 735 mmHg 67%
01:00 +17°C° 0 mm 3 mps 735 mmHg 67%
02:00 +17°C° 0 mm 3 mps 735 mmHg 67%
03:00 +17°C° 0 mm 3 mps 735 mmHg 68%
04:00 +17°C° 0 mm 3 mps 735 mmHg 68%
05:00 +16°C° 0 mm 2 mps 735 mmHg 69%
06:00 +19°C° 0 mm 3 mps 735 mmHg 64%
07:00 +21°C° 0 mm 3 mps 735 mmHg 59%
08:00 +24°C° 0 mm 3 mps 735 mmHg 54%
09:00 +26°C° 0 mm 4 mps 735 mmHg 50%
10:00 +28°C° 0 mm 4 mps 735 mmHg 45%
11:00 +29°C° 0 mm 4 mps 735 mmHg 41%
12:00 +30°C° 0 mm 4 mps 735 mmHg 38%
13:00 +32°C° 0 mm 4 mps 734 mmHg 36%
14:00 +32°C° 0 mm 4 mps 734 mmHg 33%
15:00 +31°C° 0 mm 3 mps 734 mmHg 37%
16:00 +30°C° 0 mm 2 mps 734 mmHg 40%
17:00 +30°C° 0 mm 2 mps 733 mmHg 44%
18:00 +28°C° 0 mm 2 mps 733 mmHg 46%
19:00 +26°C° 0 mm 1 mps 734 mmHg 49%
20:00 +24°C° 0 mm 1 mps 734 mmHg 52%
21:00 +23°C° 0 mm 1 mps 734 mmHg 53%
22:00 +23°C° 0 mm 2 mps 734 mmHg 54%
23:00 +21°C° 0 mm 2 mps 734 mmHg 55%

Day after tomorrow, 9 July, Thursday

Time Temperature Precipitation Wind Pressure Humidity
00:00 +20°C° 0 mm 2 mps 734 mmHg 55%
01:00 +20°C° 0 mm 2 mps 733 mmHg 55%
02:00 +19°C° 0 mm 2 mps 733 mmHg 55%
03:00 +19°C° 0 mm 2 mps 733 mmHg 57%
04:00 +19°C° 0 mm 2 mps 734 mmHg 60%
05:00 +20°C° 0 mm 1 mps 734 mmHg 62%
06:00 +22°C° 0 mm 1 mps 734 mmHg 57%
07:00 +24°C° 0 mm 1 mps 734 mmHg 52%
08:00 +26°C° 0 mm 1 mps 735 mmHg 47%
09:00 +28°C° 0 mm 1 mps 735 mmHg 44%
10:00 +30°C° 0 mm 1 mps 735 mmHg 40%
11:00 +30°C° 0 mm 0 mps 735 mmHg 36%
12:00 +32°C° 0 mm 1 mps 734 mmHg 34%
13:00 +33°C° 0 mm 1 mps 734 mmHg 32%
14:00 +34°C° 0 mm 2 mps 734 mmHg 30%
15:00 +32°C° 0 mm 2 mps 734 mmHg 33%
16:00 +33°C° 0 mm 3 mps 734 mmHg 36%
17:00 +31°C° 0 mm 3 mps 733 mmHg 39%
18:00 +29°C° 0 mm 3 mps 733 mmHg 45%
19:00 +27°C° 0 mm 3 mps 734 mmHg 52%
20:00 +25°C° 0 mm 3 mps 734 mmHg 58%
21:00 +24°C° 0 mm 2 mps 734 mmHg 60%
22:00 +23°C° 0 mm 2 mps 734 mmHg 62%
23:00 +21°C° 0 mm 2 mps 734 mmHg 64%

10 July, Friday

Time Temperature Precipitation Wind Pressure Humidity
00:00 +21°C° 0 mm 2 mps 734 mmHg 65%
01:00 +20°C° 0 mm 2 mps 734 mmHg 66%
02:00 +20°C° 0 mm 2 mps 734 mmHg 67%
03:00 +20°C° 0 mm 2 mps 735 mmHg 68%
04:00 +20°C° 0 mm 2 mps 735 mmHg 68%
05:00 +20°C° 0 mm 2 mps 735 mmHg 69%
06:00 +23°C° 0 mm 2 mps 735 mmHg 64%
07:00 +25°C° 0 mm 2 mps 735 mmHg 60%
08:00 +27°C° 0 mm 2 mps 736 mmHg 56%
09:00 +28°C° 0 mm 2 mps 736 mmHg 52%
10:00 +30°C° 0 mm 3 mps 736 mmHg 48%
11:00 +31°C° 0 mm 3 mps 736 mmHg 44%
12:00 +33°C° 0 mm 3 mps 736 mmHg 42%
13:00 +33°C° 0 mm 3 mps 735 mmHg 39%
14:00 +34°C° 0 mm 4 mps 735 mmHg 37%
15:00 +33°C° 0 mm 4 mps 735 mmHg 40%
16:00 +33°C° 0 mm 4 mps 735 mmHg 42%
17:00 +33°C° 0 mm 4 mps 735 mmHg 45%
18:00 +30°C° 0 mm 4 mps 735 mmHg 51%
19:00 +28°C° 0 mm 4 mps 735 mmHg 57%
20:00 +26°C° 0 mm 4 mps 735 mmHg 64%
21:00 +25°C° 0.2 mm 3 mps 735 mmHg 68%
22:00 +24°C° 0.2 mm 2 mps 735 mmHg 72%
23:00 +23°C° 0.2 mm 2 mps 735 mmHg 76%

11 July, Saturday

Time Temperature Precipitation Wind Pressure Humidity
00:00 +23°C° 0 mm 2 mps 735 mmHg 77%
01:00 +23°C° 0 mm 1 mps 735 mmHg 78%
02:00 +22°C° 0 mm 1 mps 735 mmHg 79%
03:00 +22°C° 0.1 mm 1 mps 736 mmHg 80%
04:00 +22°C° 0.1 mm 1 mps 736 mmHg 82%
05:00 +21°C° 0.1 mm 2 mps 736 mmHg 83%
06:00 +24°C° 0.1 mm 2 mps 736 mmHg 78%
07:00 +25°C° 0.1 mm 2 mps 736 mmHg 72%
08:00 +27°C° 0.1 mm 2 mps 736 mmHg 67%
09:00 +29°C° 0 mm 2 mps 736 mmHg 60%
10:00 +30°C° 0 mm 2 mps 736 mmHg 54%
11:00 +32°C° 0 mm 2 mps 737 mmHg 47%
12:00 +32°C° 0 mm 2 mps 736 mmHg 45%
13:00 +34°C° 0 mm 2 mps 736 mmHg 43%
14:00 +35°C° 0 mm 2 mps 736 mmHg 42%
15:00 +34°C° 0 mm 3 mps 735 mmHg 44%
16:00 +34°C° 0 mm 3 mps 735 mmHg 46%
17:00 +33°C° 0 mm 4 mps 735 mmHg 48%
18:00 +30°C° 0.2 mm 3 mps 735 mmHg 57%
19:00 +28°C° 0.2 mm 2 mps 735 mmHg 66%
20:00 +26°C° 0.2 mm 2 mps 736 mmHg 74%
21:00 +25°C° 0 mm 2 mps 736 mmHg 76%
22:00 +25°C° 0 mm 2 mps 736 mmHg 78%
23:00 +25°C° 0 mm 2 mps 736 mmHg 80%

12 July, Sunday

Time Temperature Precipitation Wind Pressure Humidity
00:00 +24°C° 0.1 mm 2 mps 736 mmHg 80%
01:00 +24°C° 0.1 mm 2 mps 736 mmHg 81%
02:00 +24°C° 0.1 mm 1 mps 736 mmHg 81%
03:00 +23°C° 0 mm 1 mps 736 mmHg 83%
04:00 +23°C° 0 mm 1 mps 736 mmHg 84%
05:00 +23°C° 0 mm 1 mps 736 mmHg 85%
06:00 +24°C° 0 mm 1 mps 737 mmHg 79%
07:00 +26°C° 0 mm 2 mps 737 mmHg 74%
08:00 +27°C° 0 mm 2 mps 737 mmHg 68%
09:00 +29°C° 0 mm 2 mps 737 mmHg 62%
10:00 +30°C° 0 mm 2 mps 737 mmHg 56%
11:00 +32°C° 0 mm 2 mps 737 mmHg 51%
12:00 +34°C° 0 mm 2 mps 736 mmHg 47%
13:00 +34°C° 0 mm 2 mps 736 mmHg 44%
14:00 +35°C° 0 mm 2 mps 736 mmHg 41%
15:00 +35°C° 0 mm 2 mps 735 mmHg 42%
16:00 +34°C° 0 mm 3 mps 735 mmHg 43%
17:00 +34°C° 0 mm 3 mps 735 mmHg 44%
18:00 +31°C° 0 mm 3 mps 735 mmHg 52%
19:00 +28°C° 0 mm 3 mps 735 mmHg 61%
20:00 +26°C° 0 mm 3 mps 735 mmHg 69%
21:00 +25°C° 0 mm 2 mps 735 mmHg 71%
22:00 +25°C° 0 mm 2 mps 735 mmHg 73%
23:00 +24°C° 0 mm 1 mps 735 mmHg 75%
Show more